Location: 22
(39.7117°N, 89.5929°W)
Time: 15:23:36
(UTC-05:00)

Tiros 1 despin weight - Pass Details

Date: 12 August 2024
Orbit: 573 x 617 km, 48.2° (Epoch: 17 September)

Event Time Altitude Azimuth Distance (km) Brightness Sun altitude
Rises 23:16:06 0° 297° (WNW) 2,779 ? -30.3°
Reaches altitude 10° 23:18:25 10° 292° (WNW) 1,876 ? -30.5°
Enters shadow 23:19:51 20° 284° (WNW) 1,351 ? -30.7°
